| time (UTC) | temp F | wind direction | speed MPH | gust MPH | rain 1hr in | rain 24hr in | rain mn in | humidity % | barometer mb |
| 20260508115437 | 38 | 238 | 4.0 | 8.0 | 0.00 | 0.00 | 0.00 | 51 | 1014.0 |
| 20260508114936 | 38 | 239 | 4.0 | 6.0 | 0.00 | 0.00 | 0.00 | 53 | 1014.1 |
| 20260508111935 | 39 | 240 | 4.0 | 6.0 | 0.00 | 0.00 | 0.00 | 51 | 1014.1 |
| 20260508110934 | 39 | 240 | 4.0 | 8.0 | 0.00 | 0.00 | 0.00 | 47 | 1014.2 |
| 20260508105933 | 39 | 240 | 5.0 | 9.0 | 0.00 | 0.00 | 0.00 | 47 | 1014.3 |
| 20260508105433 | 39 | 240 | 4.0 | 9.0 | 0.00 | 0.00 | 0.00 | 48 | 1014.3 |
| 20260508104933 | 39 | 240 | 4.0 | 6.0 | 0.00 | 0.00 | 0.00 | 48 | 1014.4 |
| 20260508104433 | 39 | 240 | 4.0 | 10.0 | 0.00 | 0.00 | 0.00 | 49 | 1014.3 |
| 20260508103932 | 39 | 240 | 4.0 | 9.0 | 0.00 | 0.00 | 0.00 | 49 | 1014.2 |
| 20260508103432 | 39 | 242 | 3.0 | 8.0 | 0.00 | 0.00 | 0.00 | 49 | 1014.4 |
| 20260508102932 | 39 | 242 | 3.0 | 6.0 | 0.00 | 0.00 | 0.00 | 49 | 1014.4 |
| 20260508102433 | 40 | 242 | 4.0 | 6.0 | 0.00 | 0.00 | 0.00 | 48 | 1014.3 |
| 20260508101931 | 40 | 242 | 4.0 | 8.0 | 0.00 | 0.00 | 0.00 | 49 | 1014.3 |
| 20260508101431 | 39 | 243 | 4.0 | 8.0 | 0.00 | 0.00 | 0.00 | 48 | 1014.2 |
| 20260508100931 | 39 | 243 | 4.0 | 6.0 | 0.00 | 0.00 | 0.00 | 48 | 1014.2 |
| 20260508100431 | 39 | 243 | 5.0 | 8.0 | 0.00 | 0.00 | 0.00 | 47 | 1014.3 |
| 20260508095430 | 40 | 244 | 4.0 | 8.0 | 0.00 | 0.00 | 0.00 | 48 | 1014.3 |
| 20260508094929 | 40 | 244 | 5.0 | 8.0 | 0.00 | 0.00 | 0.00 | 49 | 1014.4 |
| 20260508094429 | 40 | 244 | 4.0 | 10.0 | 0.00 | 0.00 | 0.00 | 49 | 1014.4 |
| 20260508093929 | 40 | 247 | 5.0 | 8.0 | 0.00 | 0.00 | 0.00 | 48 | 1014.4 |
| 20260508093428 | 40 | 247 | 5.0 | 8.0 | 0.00 | 0.00 | 0.00 | 45 | 1014.4 |
| 20260508092428 | 40 | 250 | 4.0 | 9.0 | 0.00 | 0.00 | 0.00 | 48 | 1014.4 |
| 20260508091928 | 40 | 255 | 4.0 | 7.0 | 0.00 | 0.00 | 0.00 | 46 | 1014.4 |
| 20260508091427 | 40 | 255 | 5.0 | 8.0 | 0.00 | 0.00 | 0.00 | 46 | 1014.4 |
| 20260508090927 | 40 | 257 | 5.0 | 8.0 | 0.00 | 0.00 | 0.00 | 46 | 1014.4 |
| 20260508090427 | 40 | 258 | 4.0 | 9.0 | 0.00 | 0.00 | 0.00 | 46 | 1014.5 |
| 20260508085926 | 40 | 261 | 3.0 | 8.0 | 0.00 | 0.00 | 0.00 | 47 | 1014.5 |
| 20260508085426 | 40 | 261 | 3.0 | 6.0 | 0.00 | 0.00 | 0.00 | 48 | 1014.5 |
| 20260508084926 | 40 | 261 | 3.0 | 7.0 | 0.00 | 0.00 | 0.00 | 47 | 1014.5 |
| 20260508084426 | 41 | 261 | 3.0 | 6.0 | 0.00 | 0.00 | 0.00 | 47 | 1014.6 |
| 20260508083925 | 41 | 261 | 3.0 | 6.0 | 0.00 | 0.00 | 0.00 | 46 | 1014.6 |
| 20260508083425 | 41 | 261 | 4.0 | 8.0 | 0.00 | 0.00 | 0.00 | 46 | 1014.6 |
| 20260508082925 | 41 | 261 | 4.0 | 6.0 | 0.00 | 0.00 | 0.00 | 45 | 1014.6 |
| 20260508082425 | 41 | 261 | 4.0 | 10.0 | 0.00 | 0.00 | 0.00 | 45 | 1014.6 |
| 20260508081924 | 41 | 263 | 3.0 | 9.0 | 0.00 | 0.00 | 0.00 | 45 | 1014.7 |
| 20260508081424 | 41 | 264 | 4.0 | 6.0 | 0.00 | 0.00 | 0.00 | 45 | 1014.6 |
| 20260508080924 | 42 | 264 | 4.0 | 7.0 | 0.00 | 0.00 | 0.00 | 46 | 1014.6 |
| 20260508080424 | 42 | 264 | 4.0 | 8.0 | 0.00 | 0.00 | 0.00 | 46 | 1014.6 |
| 20260508075923 | 42 | 264 | 4.0 | 7.0 | 0.00 | 0.00 | 0.00 | 46 | 1014.7 |
| 20260508075423 | 42 | 264 | 4.0 | 7.0 | 0.00 | 0.00 | 0.00 | 46 | 1014.8 |
| 20260508074923 | 42 | 265 | 3.0 | 8.0 | 0.00 | 0.00 | 0.00 | 46 | 1014.8 |
| 20260508074423 | 42 | 266 | 4.0 | 6.0 | 0.00 | 0.00 | 0.00 | 47 | 1014.9 |
| 20260508073922 | 42 | 267 | 4.0 | 8.0 | 0.00 | 0.00 | 0.00 | 45 | 1014.9 |
| 20260508073422 | 42 | 267 | 4.0 | 8.0 | 0.00 | 0.00 | 0.00 | 44 | 1014.9 |
| 20260508072421 | 42 | 268 | 3.0 | 7.0 | 0.00 | 0.00 | 0.00 | 45 | 1015.0 |
| 20260508071921 | 43 | 268 | 4.0 | 6.0 | 0.00 | 0.00 | 0.00 | 45 | 1015.1 |
| 20260508071420 | 43 | 268 | 4.0 | 8.0 | 0.00 | 0.00 | 0.00 | 44 | 1015.2 |
| 20260508070920 | 43 | 270 | 4.0 | 8.0 | 0.00 | 0.00 | 0.00 | 43 | 1015.2 |
| 20260508070420 | 43 | 271 | 4.0 | 7.0 | 0.00 | 0.00 | 0.00 | 43 | 1015.3 |
| 20260508065920 | 43 | 271 | 4.0 | 8.0 | 0.00 | 0.00 | 0.00 | 43 | 1015.4 |
| 20260508065419 | 43 | 273 | 4.0 | 8.0 | 0.00 | 0.00 | 0.00 | 42 | 1015.4 |
| 20260508064919 | 43 | 275 | 4.0 | 9.0 | 0.00 | 0.00 | 0.00 | 41 | 1015.5 |
| 20260508064419 | 43 | 282 | 4.0 | 8.0 | 0.00 | 0.00 | 0.00 | 41 | 1015.5 |
| 20260508063918 | 43 | 288 | 3.0 | 7.0 | 0.00 | 0.00 | 0.00 | 41 | 1015.6 |
| 20260508063418 | 43 | 290 | 3.0 | 5.0 | 0.00 | 0.00 | 0.00 | 41 | 1015.5 |
| 20260508062918 | 43 | 290 | 3.0 | 7.0 | 0.00 | 0.00 | 0.00 | 42 | 1015.6 |
| 20260508062418 | 43 | 292 | 3.0 | 7.0 | 0.00 | 0.00 | 0.00 | 42 | 1015.5 |
| 20260508061917 | 43 | 294 | 3.0 | 7.0 | 0.00 | 0.00 | 0.00 | 43 | 1015.6 |
| 20260508061417 | 43 | 297 | 3.0 | 5.0 | 0.00 | 0.00 | 0.00 | 43 | 1015.6 |
| 20260508060917 | 43 | 298 | 4.0 | 7.0 | 0.00 | 0.00 | 0.00 | 44 | 1015.6 |
| 20260508060417 | 43 | 302 | 4.0 | 7.0 | 0.00 | 0.00 | 0.00 | 44 | 1015.6 |
| 20260508055416 | 43 | 309 | 3.0 | 5.0 | 0.00 | 0.00 | 0.00 | 42 | 1015.7 |
| 20260508054416 | 43 | 312 | 4.0 | 6.0 | 0.00 | 0.00 | 0.00 | 43 | 1015.9 |
| 20260508053915 | 43 | 314 | 3.0 | 6.0 | 0.00 | 0.00 | 0.00 | 42 | 1015.8 |
| 20260508053415 | 43 | 315 | 3.0 | 8.0 | 0.00 | 0.00 | 0.00 | 41 | 1015.8 |
| 20260508052415 | 43 | 320 | 2.0 | 6.0 | 0.00 | 0.00 | 0.00 | 41 | 1016.0 |
| 20260508051914 | 43 | 321 | 2.0 | 4.0 | 0.00 | 0.00 | 0.00 | 40 | 1015.9 |
| 20260508050913 | 43 | 321 | 2.0 | 5.0 | 0.00 | 0.00 | 0.00 | 40 | 1016.0 |
| 20260508045412 | 44 | 321 | 3.0 | 5.0 | 0.00 | 0.00 | 0.00 | 39 | 1016.2 |
| 20260508044912 | 44 | 323 | 3.0 | 6.0 | 0.00 | 0.00 | 0.00 | 38 | 1016.2 |
| 20260508043411 | 45 | 327 | 3.0 | 4.0 | 0.00 | 0.00 | 0.00 | 40 | 1016.2 |
| 20260508035910 | 47 | 329 | 2.0 | 4.0 | 0.00 | 0.00 | 0.00 | 37 | 1016.1 |
| 20260508035409 | 47 | 331 | 2.0 | 4.0 | 0.00 | 0.00 | 0.00 | 35 | 1016.0 |
| 20260508034410 | 46 | 333 | 1.0 | 2.0 | 0.00 | 0.00 | 0.00 | 37 | 1016.1 |
| 20260508032408 | 46 | 333 | 0.0 | 2.0 | 0.00 | 0.00 | 0.00 | 33 | 1015.5 |
| 20260508031907 | 47 | 333 | 0.0 | 0.0 | 0.00 | 0.00 | 0.00 | 32 | 1015.6 |
| 20260508031407 | 48 | 333 | 0.0 | 0.0 | 0.00 | 0.00 | 0.00 | 29 | 1015.6 |
| 20260508030407 | 50 | 333 | 0.0 | 0.0 | 0.00 | 0.00 | 0.00 | 29 | 1015.5 |
| 20260508025906 | 50 | 333 | 0.0 | 0.0 | 0.00 | 0.00 | 0.00 | 29 | 1015.5 |
| 20260508025406 | 51 | 333 | 0.0 | 1.0 | 0.00 | 0.00 | 0.00 | 28 | 1015.5 |
| 20260508024905 | 52 | 333 | 0.0 | 0.0 | 0.00 | 0.00 | 0.00 | 28 | 1015.4 |
| 20260508024406 | 53 | 333 | 0.0 | 0.0 | 0.00 | 0.00 | 0.00 | 27 | 1015.2 |
| 20260508021904 | 56 | 333 | 1.0 | 2.0 | 0.00 | 0.00 | 0.00 | 25 | 1015.1 |
| 20260508020903 | 58 | 333 | 3.0 | 4.0 | 0.00 | 0.00 | 0.00 | 24 | 1015.0 |
| 20260508015402 | 60 | 333 | 4.0 | 6.0 | 0.00 | 0.00 | 0.00 | 22 | 1014.7 |
| 20260508014902 | 61 | 333 | 5.0 | 8.0 | 0.00 | 0.00 | 0.00 | 22 | 1014.8 |
| 20260508014402 | 61 | 333 | 5.0 | 10.0 | 0.00 | 0.00 | 0.00 | 21 | 1014.7 |
| 20260508013902 | 62 | 330 | 6.0 | 9.0 | 0.00 | 0.00 | 0.00 | 21 | 1014.8 |
| 20260508013401 | 62 | 333 | 6.0 | 10.0 | 0.00 | 0.00 | 0.00 | 21 | 1014.9 |
| 20260508012901 | 62 | 332 | 7.0 | 12.0 | 0.00 | 0.00 | 0.00 | 20 | 1014.8 |
| 20260508012401 | 63 | 335 | 7.0 | 10.0 | 0.00 | 0.00 | 0.00 | 20 | 1014.8 |
| 20260508011900 | 63 | 335 | 7.0 | 12.0 | 0.00 | 0.00 | 0.00 | 19 | 1014.7 |
| 20260508011400 | 64 | 344 | 7.0 | 12.0 | 0.00 | 0.00 | 0.00 | 18 | 1014.8 |
| 20260508010900 | 64 | 318 | 7.0 | 10.0 | 0.00 | 0.00 | 0.00 | 19 | 1014.8 |
| 20260508010400 | 64 | 309 | 7.0 | 12.0 | 0.00 | 0.00 | 0.00 | 18 | 1014.8 |
| 20260508005859 | 65 | 318 | 6.0 | 10.0 | 0.00 | 0.00 | 0.00 | 18 | 1014.8 |
| 20260508005359 | 65 | 355 | 7.0 | 12.0 | 0.00 | 0.00 | 0.00 | 16 | 1014.8 |
| 20260508004858 | 65 | 355 | 7.0 | 11.0 | 0.00 | 0.00 | 0.00 | 17 | 1014.8 |
| 20260508004358 | 65 | 0 | 7.0 | 10.0 | 0.00 | 0.00 | 0.00 | 16 | 1014.8 |
| 20260508003859 | 65 | 355 | 8.0 | 12.0 | 0.00 | 0.00 | 0.00 | 16 | 1014.9 |
| 20260508003358 | 65 | 321 | 8.0 | 12.0 | 0.00 | 0.00 | 0.00 | 16 | 1014.9 |
| 20260508002858 | 65 | 338 | 8.0 | 14.0 | 0.00 | 0.00 | 0.00 | 15 | 1015.0 |
| 20260508001356 | 66 | 302 | 7.0 | 11.0 | 0.00 | 0.00 | 0.00 | 15 | 1015.2 |
| 20260508000856 | 65 | 355 | 8.0 | 12.0 | 0.00 | 0.00 | 0.00 | 15 | 1015.2 |
| 20260508000357 | 66 | 0 | 7.0 | 14.0 | 0.00 | 0.00 | 0.00 | 15 | 1015.2 |
| 20260507235856 | 66 | 326 | 7.0 | 12.0 | 0.00 | 0.00 | 0.00 | 15 | 1015.3 |
| 20260507235355 | 66 | 335 | 8.0 | 12.0 | 0.00 | 0.00 | 0.00 | 16 | 1015.3 |
| 20260507234356 | 66 | 322 | 9.0 | 14.0 | 0.00 | 0.00 | 0.00 | 14 | 1015.5 |
| 20260507233854 | 67 | 336 | 8.0 | 14.0 | 0.00 | 0.00 | 0.00 | 15 | 1015.6 |
| 20260507233354 | 67 | 330 | 8.0 | 12.0 | 0.00 | 0.00 | 0.00 | 17 | 1015.6 |
| 20260507232854 | 67 | 347 | 7.0 | 11.0 | 0.00 | 0.00 | 0.00 | 17 | 1015.6 |
| 20260507232354 | 67 | 355 | 6.0 | 13.0 | 0.00 | 0.00 | 0.00 | 16 | 1015.5 |
| 20260507231853 | 67 | 0 | 5.0 | 12.0 | 0.00 | 0.00 | 0.00 | 16 | 1015.6 |
| 20260507231353 | 67 | 336 | 4.0 | 10.0 | 0.00 | 0.00 | 0.00 | 16 | 1015.6 |
| 20260507230853 | 67 | 327 | 6.0 | 8.0 | 0.00 | 0.00 | 0.00 | 18 | 1015.6 |
| 20260507230353 | 67 | 323 | 6.0 | 13.0 | 0.00 | 0.00 | 0.00 | 17 | 1015.7 |
| 20260507225852 | 67 | 30 | 6.0 | 11.0 | 0.00 | 0.00 | 0.00 | 16 | 1015.7 |
| 20260507225352 | 67 | 316 | 7.0 | 11.0 | 0.00 | 0.00 | 0.00 | 17 | 1015.8 |
| 20260507224852 | 66 | 355 | 6.0 | 14.0 | 0.00 | 0.00 | 0.00 | 16 | 1015.8 |
| 20260507223851 | 66 | 15 | 6.0 | 13.0 | 0.00 | 0.00 | 0.00 | 16 | 1015.9 |
| 20260507223351 | 67 | 337 | 6.0 | 13.0 | 0.00 | 0.00 | 0.00 | 15 | 1015.9 |
| 20260507221850 | 66 | 355 | 7.0 | 13.0 | 0.00 | 0.00 | 0.00 | 17 | 1016.0 |
| 20260507220849 | 67 | 23 | 7.0 | 12.0 | 0.00 | 0.00 | 0.00 | 16 | 1016.2 |
| 20260507215849 | 66 | 313 | 6.0 | 12.0 | 0.00 | 0.00 | 0.00 | 15 | 1016.2 |
| 20260507214848 | 66 | 5 | 6.0 | 14.0 | 0.00 | 0.00 | 0.00 | 14 | 1016.6 |
| 20260507205845 | 66 | 307 | 7.0 | 14.0 | 0.00 | 0.00 | 0.00 | 18 | 1017.2 |
| 20260507204846 | 65 | 24 | 9.0 | 10.0 | 0.00 | 0.00 | 0.00 | 18 | 1017.3 |
| 20260507204345 | 65 | 331 | 10.0 | 14.0 | 0.00 | 0.00 | 0.00 | 17 | 1017.6 |
| 20260507203344 | 64 | 293 | 8.0 | 14.0 | 0.00 | 0.00 | 0.00 | 18 | 1017.6 |
| 20260507202843 | 64 | 15 | 8.0 | 15.0 | 0.00 | 0.00 | 0.00 | 16 | 1017.7 |
| 20260507202531 | 54 | 340 | 5.0 | 10.0 | 0.00 | 0.00 | 0.00 | 28 | 1020.6 |
| 20260507202344 | 64 | 322 | 7.0 | 12.0 | 0.00 | 0.00 | 0.00 | 17 | 1017.8 |
| 20260507201843 | 64 | 0 | 8.0 | 14.0 | 0.00 | 0.00 | 0.00 | 17 | 1017.8 |
| 20260507200842 | 65 | 313 | 7.0 | 13.0 | 0.00 | 0.00 | 0.00 | 18 | 1017.9 |
| 20260507195842 | 64 | 323 | 8.0 | 13.0 | 0.00 | 0.00 | 0.00 | 15 | 1017.9 |
| 20260507195341 | 64 | 338 | 8.0 | 13.0 | 0.00 | 0.00 | 0.00 | 18 | 1017.9 |
| 20260507194841 | 64 | 355 | 8.0 | 13.0 | 0.00 | 0.00 | 0.00 | 17 | 1017.9 |
| 20260507194341 | 64 | 276 | 8.0 | 13.0 | 0.00 | 0.00 | 0.00 | 19 | 1017.9 |
| 20260507193841 | 64 | 316 | 9.0 | 13.0 | 0.00 | 0.00 | 0.00 | 18 | 1018.1 |
| 20260507192840 | 62 | 0 | 8.0 | 14.0 | 0.00 | 0.00 | 0.00 | 18 | 1018.1 |
| 20260507191840 | 63 | 11 | 7.0 | 15.0 | 0.00 | 0.00 | 0.00 | 21 | 1018.5 |
| 20260507191339 | 63 | 342 | 7.0 | 15.0 | 0.00 | 0.00 | 0.00 | 19 | 1018.5 |
| 20260507190839 | 63 | 344 | 7.0 | 11.0 | 0.00 | 0.00 | 0.00 | 19 | 1018.7 |
| 20260507190339 | 63 | 355 | 7.0 | 13.0 | 0.00 | 0.00 | 0.00 | 22 | 1018.7 |
| 20260507185838 | 62 | 338 | 6.0 | 10.0 | 0.00 | 0.00 | 0.00 | 21 | 1018.8 |
| 20260507185338 | 62 | 341 | 7.0 | 11.0 | 0.00 | 0.00 | 0.00 | 21 | 1018.9 |
| 20260507184838 | 62 | 348 | 8.0 | 11.0 | 0.00 | 0.00 | 0.00 | 22 | 1019.0 |
| 20260507184338 | 62 | 347 | 7.0 | 16.0 | 0.00 | 0.00 | 0.00 | 22 | 1019.0 |
| 20260507183837 | 61 | 355 | 7.0 | 12.0 | 0.00 | 0.00 | 0.00 | 22 | 1019.0 |
| 20260507183337 | 61 | 355 | 8.0 | 13.0 | 0.00 | 0.00 | 0.00 | 23 | 1019.3 |
| 20260507182337 | 61 | 355 | 7.0 | 12.0 | 0.00 | 0.00 | 0.00 | 23 | 1019.4 |
| 20260507181836 | 60 | 350 | 7.0 | 12.0 | 0.00 | 0.00 | 0.00 | 24 | 1019.4 |
| 20260507180835 | 59 | 355 | 6.0 | 12.0 | 0.00 | 0.00 | 0.00 | 25 | 1019.4 |
| 20260507180335 | 59 | 345 | 6.0 | 11.0 | 0.00 | 0.00 | 0.00 | 25 | 1019.5 |
| 20260507175835 | 58 | 355 | 7.0 | 11.0 | 0.00 | 0.00 | 0.00 | 25 | 1019.7 |
| 20260507175335 | 58 | 355 | 6.0 | 11.0 | 0.00 | 0.00 | 0.00 | 25 | 1019.7 |
| 20260507174335 | 58 | 342 | 6.0 | 10.0 | 0.00 | 0.00 | 0.00 | 23 | 1019.9 |
| 20260507173834 | 58 | 342 | 6.0 | 11.0 | 0.00 | 0.00 | 0.00 | 25 | 1020.1 |
| 20260507172833 | 57 | 355 | 7.0 | 11.0 | 0.00 | 0.00 | 0.00 | 26 | 1020.0 |
| 20260507172333 | 57 | 355 | 7.0 | 12.0 | 0.00 | 0.00 | 0.00 | 26 | 1020.0 |
| 20260507171832 | 57 | 5 | 7.0 | 11.0 | 0.00 | 0.00 | 0.00 | 26 | 1019.9 |
| 20260507165831 | 56 | 0 | 5.0 | 11.0 | 0.00 | 0.00 | 0.00 | 27 | 1020.1 |
| 20260507165331 | 55 | 355 | 6.0 | 11.0 | 0.00 | 0.00 | 0.00 | 27 | 1020.1 |
| 20260507164831 | 55 | 355 | 6.0 | 10.0 | 0.00 | 0.00 | 0.00 | 27 | 1020.2 |
| 20260507164331 | 55 | 355 | 6.0 | 9.0 | 0.00 | 0.00 | 0.00 | 27 | 1020.3 |
| 20260507163830 | 54 | 355 | 6.0 | 12.0 | 0.00 | 0.00 | 0.00 | 27 | 1020.3 |
| 20260507162331 | 54 | 355 | 8.0 | 12.0 | 0.00 | 0.00 | 0.00 | 27 | 1020.4 |
| 20260507161829 | 54 | 355 | 6.0 | 14.0 | 0.00 | 0.00 | 0.00 | 27 | 1020.4 |
| 20260507155828 | 54 | 340 | 5.0 | 10.0 | 0.00 | 0.00 | 0.00 | 28 | 1020.6 |
| 20260507155002 | 53 | 345 | 5.0 | 9.0 | 0.00 | 0.00 | 0.00 | 28 | 1020.4 |
| 20260507154827 | 53 | 345 | 5.0 | 9.0 | 0.00 | 0.00 | 0.00 | 28 | 1020.4 |
| 20260507152025 | 52 | 322 | 5.0 | 11.0 | 0.00 | 0.00 | 0.00 | 28 | 1021.0 |
| 20260507151826 | 52 | 322 | 5.0 | 11.0 | 0.00 | 0.00 | 0.00 | 28 | 1021.0 |
| 20260507151325 | 52 | 355 | 6.0 | 12.0 | 0.00 | 0.00 | 0.00 | 27 | 1020.8 |
| 20260507150903 | 52 | 47 | 5.0 | 9.0 | 0.00 | 0.00 | 0.00 | 28 | 1021.0 |
| 20260507150825 | 52 | 47 | 5.0 | 9.0 | 0.00 | 0.00 | 0.00 | 28 | 1021.0 |
| 20260507150325 | 51 | 56 | 3.0 | 10.0 | 0.00 | 0.00 | 0.00 | 29 | 1020.7 |
| 20260507145824 | 51 | 107 | 0.0 | 3.0 | 0.00 | 0.00 | 0.00 | 28 | 1020.8 |
| 20260507145324 | 50 | 107 | 0.0 | 2.0 | 0.00 | 0.00 | 0.00 | 29 | 1020.9 |
| 20260507144824 | 50 | 107 | 0.0 | 2.0 | 0.00 | 0.00 | 0.00 | 31 | 1020.9 |
| 20260507144324 | 49 | 107 | 0.0 | 2.0 | 0.00 | 0.00 | 0.00 | 31 | 1021.1 |
| 20260507143323 | 47 | 107 | 0.0 | 2.0 | 0.00 | 0.00 | 0.00 | 34 | 1020.9 |
| 20260507142823 | 45 | 107 | 0.0 | 2.0 | 0.00 | 0.00 | 0.00 | 37 | 1020.8 |
| 20260507141822 | 42 | 107 | 0.0 | 1.0 | 0.00 | 0.00 | 0.00 | 41 | 1020.8 |
| 20260507141322 | 41 | 107 | 0.0 | 0.0 | 0.00 | 0.00 | 0.00 | 42 | 1020.8 |
| 20260507140822 | 40 | 107 | 0.0 | 1.0 | 0.00 | 0.00 | 0.00 | 44 | 1021.2 |
| 20260507140322 | 39 | 107 | 1.0 | 3.0 | 0.00 | 0.00 | 0.00 | 46 | 1021.0 |
| 20260507135821 | 37 | 107 | 1.0 | 3.0 | 0.00 | 0.00 | 0.00 | 48 | 1021.0 |
| 20260507135321 | 36 | 107 | 1.0 | 3.0 | 0.00 | 0.00 | 0.00 | 49 | 1020.9 |
| 20260507134821 | 35 | 107 | 2.0 | 3.0 | 0.00 | 0.00 | 0.00 | 51 | 1020.9 |
| 20260507134321 | 33 | 107 | 2.0 | 4.0 | 0.00 | 0.00 | 0.00 | 51 | 1020.9 |
| 20260507133820 | 32 | 107 | 2.0 | 6.0 | 0.00 | 0.00 | 0.00 | 53 | 1021.0 |
| 20260507132819 | 31 | 107 | 3.0 | 4.0 | 0.00 | 0.00 | 0.00 | 58 | 1020.9 |
| 20260507132319 | 30 | 107 | 3.0 | 6.0 | 0.00 | 0.00 | 0.00 | 58 | 1020.9 |
| 20260507131819 | 29 | 107 | 3.0 | 6.0 | 0.00 | 0.00 | 0.00 | 58 | 1020.9 |
| 20260507131318 | 29 | 107 | 2.0 | 4.0 | 0.00 | 0.00 | 0.00 | 59 | 1020.8 |
| 20260507130818 | 28 | 107 | 2.0 | 6.0 | 0.00 | 0.00 | 0.00 | 62 | 1020.8 |
| 20260507125818 | 27 | 107 | 3.0 | 6.0 | 0.00 | 0.00 | 0.00 | 61 | 1020.7 |
| 20260507125317 | 27 | 106 | 4.0 | 8.0 | 0.00 | 0.00 | 0.00 | 61 | 1020.8 |
| 20260507124817 | 27 | 105 | 4.0 | 8.0 | 0.00 | 0.00 | 0.00 | 60 | 1020.8 |
| 20260507123816 | 26 | 103 | 2.0 | 4.0 | 0.00 | 0.00 | 0.00 | 64 | 1020.8 |
| 20260507120315 | 26 | 88 | 0.0 | 4.0 | 0.00 | 0.00 | 0.00 | 61 | 1020.4 |